Location: Mesa Verde
(33.6055°N, 114.7275°W)
Time: 22:22:15
(UTC+00:00)

N. Korean satellite - Pass Details

Date: 01 October 2021
Orbit: 450 x 495 km, 97.3° (Epoch: 21 October)

Event Time Altitude Azimuth Distance (km) Brightness Sun altitude
Rises 11:45:21 0° 40° (NE) 2,556 11.0 -23.2°
Reaches altitude 10° 11:49:15 10° 83° (E) 1,679 10.4 -22.4°
Maximum altitude 11:49:51 10° 93° (E) 1,659 10.3 -22.3°
Drops below altitude 10° 11:50:27 10° 103° (ESE) 1,680 10.2 -22.2°
Sets 11:54:21 0° 146° (SE) 2,562 10.5 -21.4°
